Regional Weather Roundup
Issued by NWS

Home | Current Version | Previous Version | Text Only | Print | Product List | Glossary Off
Versions: 1 2 3 4 5 6 7 8 9 10 11 12 13 14 15 16 17 18 19 20 21 22 23 24 25 26 27 28 29 30 31 32 33 34 35 36 37 38 39 40 41 42 43 44 45 46 47 48 49 50

000
ASUS43 KOAX 270810
RWRNE

WEATHER ROUNDUP FOR NEBRASKA
NATIONAL WEATHER SERVICE OMAHA NE
300 AM CDT SAT AUG 27 2016

NOTES: SATELLITE DATA IS BEING USED TO AUGMENT CLOUD COVER ABOVE
       12000 FEET.
       "FAIR" INDICATES FEW OR NO CLOUDS BELOW 12,000 FEET WITH NO
       SIGNIFICANT WEATHER AND/OR OBSTRUCTIONS TO VISIBILITY.

  * THESE STATIONS DO NOT REPORT WEATHER SUCH AS RAIN...SNOW OR FOG.

NEZ001>004-019>022-054>056-270900-
NEBRASKA PANHANDLE

CITY           SKY/WX    TMP DP  RH WIND       PRES   REMARKS
SCOTTSBLUFF    PTCLDY    54  51  90 E7        30.06F
ALLIANCE       CLOUDY    55  54  96 E9        30.07F
CHADRON        CLOUDY    57  51  80 S12       30.01F
KIMBALL        CLOUDY    51  51 100 W7        30.10F
SIDNEY         CLOUDY    53  52  96 W7        30.08F
$$

NEZ057>060-069>072-079>082-270900-
SOUTHWEST NEBRASKA

CITY           SKY/WX    TMP DP  RH WIND       PRES   REMARKS
NORTH PLATTE   FOG       51  49  92 CALM      30.06S VSB 1/4
IMPERIAL       CLEAR     52  51  97 CALM      30.08R
LEXINGTON      CLOUDY    55  53  94 W3        30.06R
MCCOOK         CLEAR     53  51  93 CALM      30.06R
OGALLALA       CLOUDY    58  55  92 CALM      30.07S
$$

NEZ005>010-023>029-035>040-094-270900-
NORTH CENTRAL NEBRASKA

CITY           SKY/WX    TMP DP  RH WIND       PRES   REMARKS
VALENTINE      PTCLDY    54  52  93 SW6       30.04F FOG
AINSWORTH      CLEAR     54  54 100 SW3       30.05F
BROKEN BOW     CLOUDY    61  60  97 CALM      30.04S FOG
O`NEILL        CLOUDY    63  62  96 S3        30.02F FOG
ORD            CLOUDY    64  61  90 CALM      30.02R
THEDFORD       MOCLDY    53  52  97 CALM      30.07F FOG
$$

NEZ041-046>049-061>064-073>077-083>087-270900-
SOUTH CENTRAL NEBRASKA

CITY           SKY/WX    TMP DP  RH WIND       PRES   REMARKS
GRAND ISLAND   CLOUDY    65  64  97 CALM      30.02F FOG
AURORA         FOG       65  65 100 CALM      30.01S VSB 1/2
HASTINGS       CLOUDY    65  63  93 CALM      30.03F
HEBRON         LGT RAIN  67  67  97 SE9       29.96F
HOLDREGE       CLOUDY    58  56  95 NW5       30.05R
KEARNEY *      MOCLDY    61  57  88 W6        30.04R
YORK           CLOUDY    66  64  94 CALM      30.00F FOG
$$

NEZ011>018-030>034-042>045-270900-
NORTHEAST NEBRASKA

CITY           SKY/WX    TMP DP  RH WIND       PRES   REMARKS
NORFOLK        CLOUDY    63  61  93 SE5       30.00F
ALBION         CLOUDY    63  61  94 CALM      30.03R FOG
BLAIR          CLOUDY    65  64  95 E6        30.00F FOG
FREMONT        CLOUDY    65  64  96 E5        30.00F FOG
TEKAMAH        CLOUDY    65  63  93 CALM      29.99F
WAYNE          CLOUDY    63  62  97 CALM      30.00F
$$

NEZ050>053-065>068-078-088>093-270900-
SOUTHEAST NEBRASKA

CITY           SKY/WX    TMP DP  RH WIND       PRES   REMARKS
LINCOLN        CLOUDY    67  66  97 SE6       29.99F
OMAHA EPPLEY   CLOUDY    67  63  87 E7        30.00F
BEATRICE       CLOUDY    67  66  96 SE7       30.00S
FALLS CITY     FOG       67  67 100 NE3       29.99F VSB 1/4
NEBRASKA CITY  FOG       66  66 100 E3        30.00F VSB 1/2
PLATTSMOUTH    CLOUDY    66  66  99 E3        30.00F FOG
$$

NEZ044-045-051>053-067-270900-
OMAHA AREA

CITY           SKY/WX    TMP DP  RH WIND       PRES   REMARKS
OMAHA EPPLEY   CLOUDY    67  63  87 E7        30.00F
BLAIR          CLOUDY    65  64  95 E6        30.00F FOG
FREMONT        CLOUDY    65  64  96 E5        30.00F FOG
MILLARD        CLOUDY    67  65  93 E3        29.99F
OFFUTT AFB     CLOUDY    66  66 100 E7        29.98F
PLATTSMOUTH    CLOUDY    66  66  99 E3        30.00F FOG
WAHOO          CLOUDY    65  64  96 CALM      29.99F FOG
$$




USA.gov is the U.S. government's official web portal to all federal, state and local government web resources and services.